• In Belarus
  • List of Countries
  • For 7 days
  • Water Temperature
  • Satellite Maps
  • Weather Map
  • Weather Widgets
  • user-avatar
    Login

    Hourly Weather Glazovo

    Today, 16 July, Monday

    Time Temperature Precipitation Wind Pressure Humidity
    00:00 +19°C° 1.3 mm 3 mps 738 mmHg 96%
    01:00 +19°C° 1.3 mm 3 mps 738 mmHg 96%
    02:00 +19°C° 1.3 mm 3 mps 738 mmHg 96%
    03:00 +19°C° 0.2 mm 3 mps 738 mmHg 96%
    04:00 +19°C° 0.2 mm 3 mps 738 mmHg 96%
    05:00 +19°C° 0.2 mm 3 mps 738 mmHg 96%
    06:00 +21°C° 0.3 mm 3 mps 738 mmHg 92%
    07:00 +22°C° 0.3 mm 4 mps 737 mmHg 88%
    08:00 +23°C° 0.3 mm 4 mps 737 mmHg 84%
    09:00 +25°C° 1.3 mm 4 mps 737 mmHg 82%
    10:00 +26°C° 1.3 mm 5 mps 737 mmHg 79%
    11:00 +26°C° 1.3 mm 5 mps 737 mmHg 77%
    12:00 +26°C° 1.2 mm 5 mps 737 mmHg 77%
    13:00 +27°C° 1.2 mm 4 mps 737 mmHg 77%
    14:00 +27°C° 1.2 mm 4 mps 737 mmHg 77%
    15:00 +26°C° 1.3 mm 4 mps 737 mmHg 79%
    16:00 +26°C° 1.3 mm 3 mps 736 mmHg 81%
    17:00 +26°C° 1.3 mm 3 mps 736 mmHg 83%
    18:00 +25°C° 1 mm 3 mps 736 mmHg 85%
    19:00 +24°C° 1 mm 3 mps 736 mmHg 87%
    20:00 +22°C° 1 mm 3 mps 736 mmHg 88%
    21:00 +21°C° 0.4 mm 3 mps 736 mmHg 90%
    22:00 +21°C° 0.4 mm 3 mps 736 mmHg 92%
    23:00 +20°C° 0.4 mm 3 mps 736 mmHg 94%

    Tomorrow, 17 July, Tuesday

    Time Temperature Precipitation Wind Pressure Humidity
    00:00 +20°C° 0.4 mm 3 mps 735 mmHg 94%
    01:00 +20°C° 0.4 mm 4 mps 735 mmHg 95%
    02:00 +20°C° 0.4 mm 4 mps 735 mmHg 95%
    03:00 +20°C° 0.6 mm 4 mps 735 mmHg 95%
    04:00 +20°C° 0.6 mm 5 mps 735 mmHg 95%
    05:00 +20°C° 0.6 mm 5 mps 734 mmHg 95%
    06:00 +21°C° 0.6 mm 5 mps 734 mmHg 92%
    07:00 +22°C° 0.6 mm 5 mps 734 mmHg 89%
    08:00 +23°C° 0.6 mm 6 mps 734 mmHg 86%
    09:00 +24°C° 1 mm 6 mps 734 mmHg 84%
    10:00 +26°C° 1 mm 6 mps 734 mmHg 82%
    11:00 +27°C° 1 mm 7 mps 734 mmHg 79%
    12:00 +27°C° 0.9 mm 7 mps 733 mmHg 80%
    13:00 +26°C° 0.9 mm 7 mps 733 mmHg 81%
    14:00 +26°C° 0.9 mm 6 mps 733 mmHg 82%
    15:00 +24°C° 0.6 mm 6 mps 733 mmHg 84%
    16:00 +25°C° 0.6 mm 5 mps 733 mmHg 87%
    17:00 +23°C° 0.6 mm 5 mps 733 mmHg 89%
    18:00 +22°C° 0.4 mm 5 mps 733 mmHg 91%
    19:00 +21°C° 0.4 mm 5 mps 733 mmHg 93%
    20:00 +21°C° 0.4 mm 5 mps 733 mmHg 95%
    21:00 +20°C° 0.2 mm 5 mps 733 mmHg 95%
    22:00 +20°C° 0.2 mm 4 mps 733 mmHg 96%
    23:00 +19°C° 0.2 mm 4 mps 733 mmHg 96%

    Day after tomorrow, 18 July, Wednesday

    Time Temperature Precipitation Wind Pressure Humidity
    00:00 +19°C° 0.1 mm 4 mps 733 mmHg 96%
    01:00 +19°C° 0.1 mm 4 mps 733 mmHg 96%
    02:00 +19°C° 0.1 mm 4 mps 733 mmHg 96%
    03:00 +19°C° 0.4 mm 4 mps 733 mmHg 96%
    04:00 +19°C° 0.4 mm 4 mps 733 mmHg 96%
    05:00 +19°C° 0.4 mm 5 mps 733 mmHg 96%
    06:00 +19°C° 0.2 mm 4 mps 733 mmHg 96%
    07:00 +20°C° 0.2 mm 4 mps 733 mmHg 95%
    08:00 +20°C° 0.2 mm 4 mps 733 mmHg 95%
    09:00 +20°C° 0.5 mm 3 mps 733 mmHg 94%
    10:00 +21°C° 0.5 mm 3 mps 733 mmHg 93%
    11:00 +21°C° 0.5 mm 3 mps 733 mmHg 92%
    12:00 +21°C° 0.7 mm 3 mps 733 mmHg 92%
    13:00 +21°C° 0.7 mm 2 mps 733 mmHg 91%
    14:00 +23°C° 0.7 mm 2 mps 733 mmHg 91%
    15:00 +23°C° 0.7 mm 2 mps 733 mmHg 90%
    16:00 +23°C° 0.7 mm 2 mps 733 mmHg 89%
    17:00 +23°C° 0.7 mm 2 mps 733 mmHg 88%
    18:00 +23°C° 1.1 mm 2 mps 733 mmHg 90%
    19:00 +21°C° 1.1 mm 2 mps 733 mmHg 93%
    20:00 +20°C° 1.1 mm 2 mps 733 mmHg 95%
    21:00 +20°C° 1.1 mm 2 mps 734 mmHg 95%
    22:00 +20°C° 1.1 mm 2 mps 734 mmHg 96%
    23:00 +19°C° 1.1 mm 3 mps 734 mmHg 96%

    19 July, Thursday

    Time Temperature Precipitation Wind Pressure Humidity
    00:00 +19°C° 0.6 mm 3 mps 734 mmHg 96%
    01:00 +19°C° 0.6 mm 3 mps 734 mmHg 96%
    02:00 +19°C° 0.6 mm 3 mps 734 mmHg 96%
    03:00 +19°C° 0.5 mm 3 mps 734 mmHg 96%
    04:00 +19°C° 0.5 mm 3 mps 734 mmHg 96%
    05:00 +18°C° 0.5 mm 3 mps 734 mmHg 96%
    06:00 +19°C° 0.4 mm 3 mps 735 mmHg 94%
    07:00 +20°C° 0.4 mm 3 mps 735 mmHg 91%
    08:00 +21°C° 0.4 mm 3 mps 735 mmHg 89%
    09:00 +22°C° 0.6 mm 3 mps 735 mmHg 85%
    10:00 +24°C° 0.6 mm 3 mps 735 mmHg 81%
    11:00 +25°C° 0.6 mm 3 mps 735 mmHg 77%
    12:00 +25°C° 1 mm 3 mps 735 mmHg 77%
    13:00 +26°C° 1 mm 3 mps 735 mmHg 77%
    14:00 +26°C° 1 mm 3 mps 735 mmHg 77%
    15:00 +26°C° 1.1 mm 3 mps 735 mmHg 79%
    16:00 +25°C° 1.1 mm 3 mps 735 mmHg 81%
    17:00 +25°C° 1.1 mm 3 mps 735 mmHg 83%
    18:00 +24°C° 0.5 mm 3 mps 735 mmHg 86%
    19:00 +22°C° 0.5 mm 3 mps 735 mmHg 89%
    20:00 +20°C° 0.5 mm 2 mps 735 mmHg 93%
    21:00 +20°C° 0 mm 2 mps 735 mmHg 94%
    22:00 +19°C° 0 mm 2 mps 735 mmHg 95%
    23:00 +19°C° 0 mm 2 mps 735 mmHg 96%

    20 July, Friday

    Time Temperature Precipitation Wind Pressure Humidity
    00:00 +19°C° 0 mm 2 mps 735 mmHg 97%
    01:00 +18°C° 0 mm 2 mps 735 mmHg 97%
    02:00 +18°C° 0 mm 2 mps 735 mmHg 97%
    03:00 +18°C° 0 mm 2 mps 735 mmHg 97%
    04:00 +19°C° 0 mm 3 mps 735 mmHg 97%
    05:00 +19°C° 0 mm 3 mps 736 mmHg 97%
    06:00 +20°C° 0 mm 3 mps 736 mmHg 96%
    07:00 +20°C° 0 mm 3 mps 736 mmHg 94%
    08:00 +21°C° 0 mm 3 mps 736 mmHg 93%
    09:00 +22°C° 0.1 mm 3 mps 736 mmHg 89%
    10:00 +24°C° 0.1 mm 3 mps 736 mmHg 86%
    11:00 +25°C° 0.1 mm 2 mps 736 mmHg 83%
    12:00 +25°C° 0.3 mm 3 mps 736 mmHg 81%
    13:00 +26°C° 0.3 mm 3 mps 736 mmHg 79%
    14:00 +27°C° 0.3 mm 3 mps 736 mmHg 77%
    15:00 +26°C° 0.3 mm 3 mps 736 mmHg 78%
    16:00 +26°C° 0.3 mm 3 mps 736 mmHg 79%
    17:00 +26°C° 0.3 mm 2 mps 736 mmHg 80%
    18:00 +25°C° 0.1 mm 2 mps 736 mmHg 84%
    19:00 +24°C° 0.1 mm 2 mps 736 mmHg 88%
    20:00 +22°C° 0.1 mm 1 mps 737 mmHg 92%
    21:00 +22°C° 0 mm 1 mps 737 mmHg 93%
    22:00 +21°C° 0 mm 1 mps 736 mmHg 93%
    23:00 +21°C° 0 mm 1 mps 736 mmHg 94%

    21 July, Saturday

    Time Temperature Precipitation Wind Pressure Humidity
    00:00 +20°C° 0 mm 1 mps 737 mmHg 94%
    01:00 +18°C° 0 mm 0 mps 737 mmHg 94%
    02:00 +18°C° 0 mm 0 mps 737 mmHg 95%
    03:00 +18°C° 0 mm 0 mps 737 mmHg 95%
    04:00 +20°C° 0 mm 1 mps 737 mmHg 95%
    05:00 +21°C° 0 mm 1 mps 737 mmHg 95%
    06:00 +22°C° 0 mm 1 mps 737 mmHg 91%
    07:00 +21°C° 0 mm 0 mps 738 mmHg 87%
    08:00 +23°C° 0 mm 0 mps 738 mmHg 83%
    09:00 +26°C° 0.1 mm 1 mps 738 mmHg 79%
    10:00 +27°C° 0.1 mm 1 mps 738 mmHg 74%
    11:00 +28°C° 0.1 mm 1 mps 738 mmHg 70%
    12:00 +28°C° 0.3 mm 1 mps 738 mmHg 69%
    13:00 +28°C° 0.3 mm 1 mps 738 mmHg 69%
    14:00 +29°C° 0.3 mm 1 mps 738 mmHg 68%
    15:00 +29°C° 0.8 mm 1 mps 738 mmHg 70%
    16:00 +28°C° 0.8 mm 1 mps 738 mmHg 72%
    17:00 +28°C° 0.8 mm 1 mps 738 mmHg 74%
    18:00 +27°C° 0.2 mm 1 mps 738 mmHg 79%
    19:00 +25°C° 0.2 mm 2 mps 738 mmHg 84%
    20:00 +24°C° 0.2 mm 2 mps 738 mmHg 90%
    21:00 +23°C° 0 mm 2 mps 738 mmHg 91%
    22:00 +23°C° 0 mm 2 mps 738 mmHg 93%
    23:00 +21°C° 0 mm 2 mps 738 mmHg 95%
    Show more